Atlantic City, NJ

10:18 PM EST on December 11, 2019 (GMT -0500)
Atlantic City International

Weather History for KACY - November, 2019

Change the Weather History Date:

Tuesday, November 12, 2019

  Actual Average Record
Temperature  
Mean Temperature 44 °F 48 °F  
Max Temperature 61 °F 58 °F 72 °F (1964)
Min Temperature 26 °F 38 °F 20 °F (2001)
Degree Days  
Heating Degree Days 22 17  
Month to date heating degree days 237 185  
Since 1 July heating degree days 413 543  
Cooling Degree Days 0 0  
Month to date cooling degree days 0 0  
Year to date cooling degree days 1410 1054  
Moisture  
Dew Point 32 °F    
Average Humidity 71    
Maximum Humidity 89    
Minimum Humidity 31    
Precipitation  
Precipitation 0.12 in 0.10 in 1.73 in (2006)
Month to date precipitation 0.44 1.30  
Year to date precipitation 37.41 36.09  
Snow  
Snow T in 0.00 in T in (2013)
Month to date snowfall T 0.0  
Since 1 July snowfall T 0.0  
Since 1 September snowfall T 0.0  
Snow Depth 0.00 in    
Sea Level Pressure  
Sea Level Pressure 29.92 in    
Wind  
Wind Speed 13 mph ()    
Max Wind Speed 26 mph    
Max Gust Speed 36 mph    
Visibility 7.3 miles    
Events Rain , Snow    
T = Trace of Precipitation, MM = Missing Value Source: Averaged Metar Reports

Daily Weather History Graph

Daily Weather History Graph

Search for Another Location

Airport or City:

Astronomy

Nov. 12, 2019 Rise Set
Actual Time 6:38 AM EST 4:45 PM EST
Civil Twilight 6:10 AM EST 5:14 PM EST
Nautical Twilight 5:37 AM EST 5:46 PM EST
Astronomical Twilight 5:06 AM EST 6:18 PM EST
Moon 5:11 PM EST 6:27 AM EST
Length of Visible Light 11h 04m
Length of Day
10h 07m
Full, 100% of the Moon is Illuminated
Nov 12
Full
Nov 19
Last Quarter
Nov 26
New
Dec 4
First Quarter
Dec 12
Full

Hourly Weather History & Observations

Time (EST) Temp. Windchill Dew Point Humidity Pressure Visibility Wind Dir Wind Speed Gust Speed Precip Events Conditions
12:54 AM 57.9 °F - 43.0 °F 58% 29.81 in 10.0 mi SSW 11.5 mph 19.6 mph N/A   Clear
1:54 AM 61.0 °F - 37.9 °F 42% 29.78 in 10.0 mi SW 13.8 mph 23.0 mph N/A   Clear
2:54 AM 60.1 °F - 39.0 °F 46% 29.75 in 10.0 mi SSW 11.5 mph 18.4 mph N/A   Clear
3:54 AM 59.0 °F - 39.9 °F 49% 29.74 in 10.0 mi SW 10.4 mph 21.9 mph N/A   Clear
4:54 AM 59.0 °F - 41.0 °F 51% 29.75 in 10.0 mi SW 12.7 mph 23.0 mph N/A   Clear
5:54 AM 59.0 °F - 42.1 °F 53% 29.75 in 10.0 mi WSW 6.9 mph 20.7 mph N/A   Partly Cloudy
6:54 AM 59.0 °F - 42.1 °F 53% 29.75 in 10.0 mi WSW 8.1 mph - N/A   Overcast
7:54 AM 57.9 °F - 43.0 °F 58% 29.80 in 10.0 mi West 18.4 mph 29.9 mph N/A   Unknown
8:16 AM 55.0 °F - 46.0 °F 72% 29.80 in 8.0 mi West 9.2 mph 25.3 mph 0.00 in Rain Light Rain
8:54 AM 54.0 °F - 48.0 °F 80% 29.81 in 10.0 mi West 10.4 mph - 0.02 in Rain Light Rain
9:08 AM 53.1 °F - 48.0 °F 83% 29.81 in 10.0 mi West 12.7 mph 20.7 mph 0.00 in   Overcast
9:38 AM 53.1 °F - 48.0 °F 83% 29.81 in 9.0 mi West 10.4 mph - 0.00 in Rain Light Rain
9:54 AM 46.9 °F - 42.1 °F 83% 29.83 in 10.0 mi NNW 21.9 mph 35.7 mph 0.00 in Rain Light Rain
10:05 AM 46.0 °F 38.3 °F 41.0 °F 83% 29.85 in 10.0 mi NW 20.7 mph 31.1 mph 0.00 in Rain Light Rain
10:38 AM 44.1 °F 35.2 °F 39.0 °F 82% 29.87 in 9.0 mi NW 23.0 mph 34.5 mph 0.01 in Rain Light Rain
10:54 AM 43.0 °F 34.0 °F 37.9 °F 82% 29.88 in 7.0 mi NW 21.9 mph 34.5 mph 0.02 in Rain Light Rain
11:54 AM 39.0 °F 29.6 °F 34.0 °F 82% 29.91 in 8.0 mi NW 18.4 mph 34.5 mph 0.03 in Rain Light Rain
12:22 PM 37.0 °F 27.7 °F 33.1 °F 86% 29.92 in 7.0 mi NNW 16.1 mph - 0.02 in   Overcast
12:42 PM 36.0 °F 25.6 °F 32.0 °F 86% 29.93 in 5.0 mi NNW 18.4 mph 31.1 mph 0.02 in Snow Light Snow
12:52 PM 35.6 °F 24.2 °F 30.2 °F 81% 29.92 in 3.0 mi NNW 21.9 mph 31.1 mph 0.02 in Snow Light Snow
12:54 PM 36.0 °F 25.6 °F 30.9 °F 82% 29.93 in 3.0 mi NNW 18.4 mph 31.1 mph 0.02 in Snow Light Snow
1:01 PM 35.1 °F 25.5 °F 30.9 °F 85% 29.93 in 2.0 mi NNW 15.0 mph 26.5 mph 0.00 in Snow Light Snow
1:06 PM 35.1 °F 24.8 °F 30.9 °F 85% 29.93 in 1.5 mi NNW 17.3 mph 26.5 mph 0.00 in Snow Light Snow
1:11 PM 35.1 °F 25.5 °F 30.9 °F 85% 29.93 in 1.2 mi NNW 15.0 mph - 0.00 in Snow Light Snow
1:47 PM 34.0 °F 24.6 °F 30.9 °F 89% 29.95 in 1.2 mi NNW 13.8 mph - 0.01 in Snow Light Snow
1:54 PM 34.0 °F 25.5 °F 30.9 °F 89% 29.95 in 1.0 mi NNW 11.5 mph - 0.01 in Snow Light Snow
2:02 PM 34.0 °F 25.0 °F 30.9 °F 89% 29.95 in 1.0 mi NNW 12.7 mph - 0.00 in Snow Light Snow
2:52 PM 33.8 °F 24.3 °F 30.2 °F 87% 29.95 in 2.0 mi NW 13.8 mph - N/A Snow Light Snow
2:54 PM 34.0 °F 25.0 °F 30.9 °F 89% 29.95 in 2.5 mi NW 12.7 mph - 0.02 in Snow Light Snow
3:02 PM 35.1 °F 26.9 °F 30.9 °F 85% 29.95 in 4.0 mi NW 11.5 mph - 0.00 in Snow Light Snow
3:54 PM 35.1 °F 25.9 °F 30.0 °F 82% 29.98 in 10.0 mi NNW 13.8 mph 20.7 mph 0.00 in   Overcast
4:54 PM 34.0 °F 23.4 °F 21.9 °F 61% 30.03 in 10.0 mi NNW 17.3 mph 27.6 mph N/A   Mostly Cloudy
5:54 PM 33.1 °F 24.9 °F 21.9 °F 64% 30.06 in 10.0 mi NNW 10.4 mph - N/A   Clear
6:54 PM 33.1 °F 25.5 °F 19.9 °F 59% 30.09 in 10.0 mi NNW 9.2 mph - N/A   Clear
7:54 PM 30.9 °F 21.7 °F 19.0 °F 61% 30.12 in 10.0 mi NNW 11.5 mph 20.7 mph N/A   Clear
8:54 PM 30.9 °F 20.7 °F 15.1 °F 52% 30.15 in 10.0 mi NNW 13.8 mph 21.9 mph N/A   Clear
9:54 PM 28.9 °F 18.2 °F 10.9 °F 47% 30.17 in 10.0 mi North 13.8 mph 24.2 mph N/A   Clear
10:54 PM 28.0 °F 14.6 °F 1.0 °F 31% 30.19 in 10.0 mi NNW 20.7 mph 33.4 mph N/A   Clear
11:54 PM 26.1 °F 15.6 °F 3.9 °F 39% 30.22 in 10.0 mi NNW 11.5 mph - N/A   Clear